BEIDOU-3 M14 (C33)

Last updated on Jan. 17, 2020, 4:32 a.m. UTC

1 43623U 18072B   20016.76096918  .00000030  00000-0  00000+0 0  9993
2 43623  55.0893 141.0514 0003315 321.3599 141.6703  1.86231658  9012
UTC
Height (km)
Latitude
Longitude
Inclination
Orbital Period
UTC large
Height (km)
Speed (km/s)
/
Latitude / Longitude
Inclination (degrees)
Orbital Period (minutes)
Azimuth
Elevation
Range (km)
Doppler Factor
iOS Compass Heading
iOS Angle

Next 30 passes for location: Hong Kong

Rise time Rise Azimuth (degrees) Set time Set Azimuth (degrees) Duration Max altitude (degrees)

No matching passes for this satellites